EW6393 Weather Reports


Display with metric or nautical units.
time (UTC)temp
F
wind
direction
speed
MPH
gust
MPH
rain 1hr
in
rain 24hr
in
rain mn
in
humidity
%
barometer
mb
20260507051644 52 62 0.0 2.0 0.00 0.28 0.28 38 1020.5
20260507051144 51 63 0.0 2.0 0.00 0.28 0.28 38 1020.6
20260507050651 52 75 0.0 1.0 0.00 0.28 0.28 38 1020.6
20260507050138 52 75 0.0 2.0 0.00 0.28 0.28 38 1020.4
20260507045619 52 67 1.0 2.0 0.00 0.28 0.28 37 1020.6
20260507045119 52 60 0.0 1.0 0.00 0.28 0.28 38 1020.7
20260507044648 52 60 0.0 2.0 0.00 0.28 0.28 38 1020.6
20260507044128 52 61 1.0 3.0 0.00 0.28 0.28 38 1020.6
20260507043638 52 68 1.0 3.0 0.00 0.28 0.28 39 1020.6
20260507043119 52 106 1.0 3.0 0.00 0.28 0.28 39 1020.6
20260507042636 52 74 1.0 2.0 0.00 0.28 0.28 39 1020.6
20260507042123 52 71 1.0 2.0 0.00 0.28 0.28 40 1020.6
20260507041624 51 23 0.0 1.0 0.00 0.28 0.28 39 1020.4
20260507041125 51 360 0.0 1.0 0.00 0.28 0.28 41 1020.4
20260507040633 52 360 0.0 1.0 0.00 0.28 0.28 41 1020.4
20260507040115 52 276 0.0 1.0 0.00 0.28 0.28 40 1020.5
20260507035616 52 58 0.0 1.0 0.00 0.28 0.28 38 1020.5
20260507035123 52 58 0.0 1.0 0.00 0.28 0.28 38 1020.5
20260507034625 53 58 0.0 1.0 0.00 0.28 0.28 37 1020.5
20260507034132 53 57 0.0 1.0 0.00 0.28 0.28 38 1020.5
20260507033613 53 58 0.0 2.0 0.00 0.28 0.28 36 1020.5
20260507033113 53 65 1.0 2.0 0.00 0.28 0.28 36 1020.4
20260507032641 54 42 1.0 2.0 0.00 0.28 0.28 37 1020.3
20260507032140 54 69 0.0 2.0 0.00 0.28 0.28 36 1020.3
20260507031627 54 47 0.0 3.0 0.00 0.28 0.28 36 1020.2
20260507031128 54 110 1.0 3.0 0.00 0.28 0.28 36 1020.0
20260507030636 54 54 0.0 2.0 0.00 0.28 0.28 35 1019.9
20260507030116 55 30 0.0 1.0 0.00 0.28 0.28 36 1019.9
20260507025616 55 44 0.0 1.0 0.00 0.28 0.28 35 1019.9
20260507025144 55 53 1.0 1.0 0.00 0.28 0.28 35 1019.9
20260507024624 56 51 0.0 2.0 0.00 0.28 0.28 34 1019.9
20260507024132 57 55 0.0 2.0 0.00 0.28 0.28 33 1019.9
20260507023612 58 36 0.0 2.0 0.00 0.28 0.28 32 1020.1
20260507023113 59 36 1.0 2.0 0.00 0.28 0.28 30 1020.0
20260507022615 61 306 0.0 0.0 0.00 0.28 0.28 28 1020.0
20260507022122 62 305 0.0 0.0 0.00 0.28 0.28 26 1019.9
20260507021624 63 305 0.0 1.0 0.00 0.28 0.28 24 1019.9
20260507021132 63 306 0.0 1.0 0.00 0.28 0.28 24 1019.9
20260507020613 64 233 0.0 1.0 0.00 0.28 0.28 24 1020.0
20260507020120 64 236 0.0 1.0 0.00 0.28 0.28 23 1019.9
20260507015641 66 256 0.0 1.0 0.00 0.28 0.28 23 1020.0
20260507015128 66 150 0.0 2.0 0.00 0.28 0.28 22 1020.1
20260507014629 66 148 0.0 2.0 0.00 0.28 0.28 22 1020.1
20260507014137 66 195 0.0 2.0 0.00 0.28 0.28 22 1020.1
20260507013617 66 172 0.0 2.0 0.00 0.28 0.28 22 1020.1
20260507013117 66 172 0.0 3.0 0.00 0.28 0.28 23 1020.2
20260507012624 66 221 0.0 3.0 0.00 0.28 0.28 23 1020.2
20260507012125 66 142 0.0 3.0 0.00 0.28 0.28 22 1020.1
20260507011626 65 141 1.0 3.0 0.00 0.28 0.28 23 1020.1
20260507011134 65 23 0.0 2.0 0.00 0.28 0.28 23 1020.1
20260507010614 64 152 1.0 4.0 0.00 0.28 0.28 22 1020.2
20260507010115 65 256 0.0 3.0 0.00 0.28 0.28 23 1020.3
20260507005623 64 27 1.0 5.0 0.00 0.28 0.28 25 1020.2
20260507005123 64 275 0.0 2.0 0.00 0.28 0.28 23 1020.2
20260507004624 64 36 1.0 3.0 0.00 0.28 0.28 23 1020.2
20260507004132 64 20 0.0 6.0 0.00 0.28 0.28 24 1020.3
20260507003147 64 257 0.0 3.0 0.00 0.28 0.28 24 1020.3
20260507002628 64 233 1.0 7.0 0.00 0.28 0.28 25 1020.3
20260507002128 64 301 3.0 7.0 0.00 0.28 0.28 25 1020.3
20260507001637 64 9 1.0 7.0 0.00 0.28 0.28 25 1020.2
20260507001116 63 8 2.0 9.0 0.00 0.28 0.28 26 1020.1
20260507000615 63 281 3.0 9.0 0.00 0.28 0.28 25 1020.1
20260507000121 63 240 3.0 10.0 0.00 0.28 0.28 25 1020.1
20260506235623 63 268 5.0 10.0 0.00 0.28 0.28 25 1020.0
20260506235124 64 277 4.0 9.0 0.00 0.28 0.28 25 1019.9
20260506234631 65 273 2.0 6.0 0.00 0.28 0.28 24 1019.9
20260506234132 64 240 3.0 6.0 0.00 0.28 0.28 25 1019.9
20260506233640 64 285 2.0 9.0 0.00 0.28 0.28 25 1019.9
20260506233120 64 274 5.0 9.0 0.00 0.28 0.28 25 1019.9
20260506232627 64 315 1.0 6.0 0.00 0.28 0.28 26 1019.9
20260506232129 63 302 2.0 9.0 0.00 0.28 0.28 25 1019.9
20260506231630 63 293 4.0 9.0 0.00 0.28 0.28 25 1019.9
20260506231137 63 265 2.0 9.0 0.00 0.28 0.28 26 1020.1
20260506230639 63 292 4.0 9.0 0.00 0.28 0.28 26 1020.1
20260506230124 63 313 5.0 10.0 0.00 0.28 0.28 26 1019.9
20260506225626 63 264 5.0 10.0 0.00 0.28 0.28 25 1020.0
20260506225133 63 319 2.0 5.0 0.00 0.28 0.28 27 1020.1
20260506224613 63 282 3.0 9.0 0.00 0.28 0.28 27 1020.1
20260506224115 64 290 4.0 9.0 0.00 0.28 0.28 24 1020.1
20260506223642 63 287 1.0 8.0 0.00 0.28 0.28 27 1019.9
20260506223121 63 251 3.0 8.0 0.00 0.28 0.28 26 1020.2
20260506222629 62 239 3.0 8.0 0.00 0.28 0.28 25 1020.2
20260506222126 63 229 4.0 12.0 0.00 0.28 0.28 27 1020.2
20260506221627 62 284 5.0 12.0 0.00 0.28 0.28 27 1020.2
20260506221135 62 253 5.0 11.0 0.00 0.28 0.28 27 1020.3
20260506220616 62 208 5.0 15.0 0.00 0.28 0.28 28 1020.3
20260506220122 61 243 7.0 15.0 0.00 0.28 0.28 27 1020.2
20260506215621 61 255 4.0 12.0 0.00 0.28 0.28 30 1020.3
20260506215122 62 284 6.0 12.0 0.00 0.28 0.28 27 1020.3
20260506214131 62 249 6.0 14.0 0.00 0.28 0.28 27 1020.4
20260506213612 61 252 5.0 14.0 0.00 0.28 0.28 26 1020.4
20260506213119 62 293 8.0 14.0 0.00 0.28 0.28 28 1020.3
20260506212620 62 298 6.0 17.0 0.00 0.28 0.28 26 1020.4
20260506212121 62 316 8.0 14.0 0.00 0.28 0.28 26 1020.4
20260506211650 61 259 5.0 11.0 0.00 0.28 0.28 26 1020.3
20260506211129 61 311 5.0 11.0 0.00 0.28 0.28 28 1020.3
20260506210618 61 231 6.0 14.0 0.00 0.28 0.28 25 1020.3
20260506210115 62 296 4.0 14.0 0.00 0.28 0.28 29 1020.4
20260506205642 61 260 5.0 11.0 0.00 0.28 0.28 27 1020.3
20260506205129 61 220 6.0 11.0 0.00 0.28 0.28 27 1020.4
20260506204630 61 266 5.0 10.0 0.00 0.28 0.28 27 1020.4
20260506204111 61 333 2.0 12.0 0.00 0.28 0.28 28 1020.3
20260506203612 61 330 4.0 10.0 0.00 0.28 0.28 27 1020.4
20260506203119 61 275 1.0 9.0 0.00 0.28 0.28 25 1020.4
20260506202620 60 338 4.0 13.0 0.00 0.28 0.28 26 1020.4
20260506202130 60 244 6.0 13.0 0.00 0.28 0.28 27 1020.4
20260506201629 59 264 3.0 12.0 0.00 0.28 0.28 27 1020.3
20260506201129 60 243 6.0 12.0 0.00 0.28 0.28 26 1020.4
20260506200638 60 293 7.0 11.0 0.00 0.28 0.28 26 1020.6
20260506200117 60 48 3.0 8.0 0.00 0.28 0.28 26 1020.5
20260506195617 60 239 2.0 8.0 0.00 0.28 0.28 26 1020.5
20260506195124 59 245 4.0 8.0 0.00 0.28 0.28 27 1020.5
20260506194625 59 264 3.0 7.0 0.00 0.28 0.28 24 1020.6
20260506194127 60 30 2.0 5.0 0.00 0.28 0.28 25 1020.6
20260506193615 60 9 1.0 5.0 0.00 0.28 0.28 29 1020.6
20260506193116 59 290 2.0 8.0 0.00 0.28 0.28 26 1020.6
20260506192643 58 243 5.0 8.0 0.00 0.28 0.28 26 1020.6
20260506192151 58 300 2.0 7.0 0.00 0.28 0.28 25 1020.5
20260506191630 58 316 4.0 13.0 0.00 0.28 0.28 26 1020.6
20260506191111 58 326 7.0 13.0 0.00 0.28 0.28 25 1020.6
20260506190611 58 275 2.0 7.0 0.00 0.28 0.28 26 1020.6
20260506190118 58 48 1.0 10.0 0.00 0.28 0.28 26 1020.6
20260506185618 57 10 3.0 10.0 0.00 0.28 0.28 26 1020.6
20260506185146 57 288 1.0 7.0 0.00 0.28 0.28 27 1020.6
20260506184630 57 297 3.0 7.0 0.00 0.28 0.28 26 1020.6
20260506184130 57 359 3.0 7.0 0.00 0.28 0.28 29 1020.7
20260506183637 57 250 1.0 8.0 0.00 0.28 0.28 28 1020.7
20260506183118 56 140 1.0 8.0 0.00 0.28 0.28 27 1020.6
20260506182619 56 300 4.0 8.0 0.00 0.28 0.28 29 1020.6
20260506182147 56 300 1.0 10.0 0.00 0.28 0.28 28 1020.7
20260506181627 56 274 5.0 10.0 0.00 0.28 0.28 29 1020.7
20260506181134 55 339 2.0 8.0 0.00 0.28 0.28 28 1020.6
20260506180637 55 293 4.0 8.0 0.00 0.28 0.28 26 1020.7
20260506180124 56 261 2.0 6.0 0.00 0.28 0.28 26 1020.7
20260506175625 56 34 3.0 7.0 0.00 0.28 0.28 29 1020.7
20260506175154 55 157 2.0 8.0 0.00 0.28 0.28 28 1020.6
20260506174633 55 101 3.0 6.0 0.00 0.28 0.28 29 1020.5
20260506174141 55 117 1.0 7.0 0.00 0.28 0.28 30 1020.6
20260506173620 54 89 3.0 10.0 0.00 0.28 0.28 27 1020.5
20260506173128 54 28 4.0 10.0 0.00 0.28 0.28 30 1020.4
20260506172629 54 70 3.0 9.0 0.00 0.28 0.28 32 1020.4
20260506172130 54 330 4.0 9.0 0.00 0.28 0.28 31 1020.4
20260506171638 54 77 5.0 9.0 0.00 0.28 0.28 30 1020.4
20260506171116 55 63 1.0 5.0 0.00 0.28 0.28 33 1020.3
20260506170636 54 253 2.0 7.0 0.00 0.28 0.28 33 1020.3
20260506170121 54 336 2.0 7.0 0.00 0.28 0.28 33 1020.2
20260506165622 53 39 1.0 7.0 0.00 0.28 0.28 34 1020.1
20260506165146 53 24 1.0 6.0 0.00 0.28 0.28 31 1019.9
20260506164626 53 272 4.0 6.0 0.00 0.28 0.28 30 1019.9
20260506164117 53 233 1.0 6.0 0.00 0.28 0.28 36 1019.9
20260506163618 53 307 2.0 10.0 0.00 0.28 0.28 39 1019.8
20260506163121 53 7 3.0 10.0 0.00 0.28 0.28 34 1019.7
20260506162642 53 145 2.0 10.0 0.00 0.28 0.28 34 1019.6
20260506162129 53 94 3.0 5.0 0.00 0.28 0.28 34 1019.5
20260506161630 52 246 1.0 8.0 0.00 0.28 0.28 40 1019.6
20260506161112 52 56 3.0 9.0 0.00 0.28 0.28 41 1019.6
20260506160619 51 42 3.0 9.0 0.00 0.28 0.28 43 1019.6
20260506160119 51 110 4.0 8.0 0.00 0.28 0.28 43 1019.4
20260506155627 51 79 5.0 8.0 0.00 0.28 0.28 41 1019.4
20260506155127 51 41 4.0 8.0 0.00 0.28 0.28 42 1019.3
20260506154636 51 43 5.0 9.0 0.00 0.28 0.28 41 1019.3
20260506154116 52 63 2.0 9.0 0.00 0.28 0.28 42 1019.3
20260506153637 52 33 1.0 4.0 0.00 0.28 0.28 42 1019.3
20260506153124 51 338 1.0 4.0 0.00 0.28 0.28 43 1019.3
20260506152626 52 15 1.0 2.0 0.00 0.28 0.28 44 1019.3
20260506152136 51 3 1.0 5.0 0.00 0.28 0.28 43 1019.2
20260506151614 51 11 1.0 5.0 0.00 0.28 0.28 42 1019.1
20260506151116 51 317 1.0 2.0 0.00 0.28 0.28 43 1019.1
20260506150642 50 23 1.0 6.0 0.00 0.28 0.28 43 1019.1
20260506150121 50 290 3.0 6.0 0.00 0.28 0.28 43 1018.9
20260506145630 51 345 1.0 5.0 0.00 0.28 0.28 44 1018.9
20260506145130 51 305 2.0 5.0 0.00 0.28 0.28 46 1018.8
20260506144658 51 331 0.0 5.0 0.00 0.28 0.28 46 1018.7
20260506144139 50 303 1.0 5.0 0.00 0.28 0.28 44 1018.7
20260506143620 50 293 0.0 3.0 0.00 0.28 0.28 43 1018.6
20260506143128 51 301 0.0 2.0 0.00 0.28 0.28 44 1018.7
20260506142630 51 301 0.0 2.0 0.00 0.28 0.28 43 1018.8
20260506142138 51 360 0.0 4.0 0.00 0.28 0.28 45 1018.7
20260506141619 50 11 1.0 4.0 0.00 0.28 0.28 44 1018.6
20260506141120 50 39 1.0 2.0 0.00 0.28 0.28 45 1018.5
20260506140621 50 351 0.0 3.0 0.00 0.28 0.28 47 1018.5
20260506140126 49 12 0.0 2.0 0.00 0.28 0.28 48 1018.5
20260506135626 49 337 0.0 1.0 0.00 0.28 0.28 46 1018.4
20260506135135 47 314 0.0 2.0 0.00 0.28 0.28 49 1018.4
20260506134637 46 8 0.0 2.0 0.00 0.28 0.28 51 1018.5
20260506134116 44 345 0.0 1.0 0.00 0.28 0.28 53 1018.4
20260506133623 43 345 0.0 1.0 0.00 0.28 0.28 56 1018.3
20260506133131 42 339 0.0 1.0 0.00 0.28 0.28 55 1018.3
20260506132648 42 85 0.0 1.0 0.00 0.28 0.28 56 1018.1
20260506132136 42 85 0.0 1.0 0.00 0.28 0.28 54 1017.8
20260506131615 42 49 0.0 1.0 0.00 0.28 0.28 57 1017.8
20260506131122 42 49 0.0 2.0 0.00 0.28 0.28 56 1017.7
20260506130622 42 277 1.0 2.0 0.00 0.28 0.28 56 1017.6
20260506130129 42 122 1.0 2.0 0.00 0.28 0.28 55 1017.4
20260506125630 42 299 0.0 3.0 0.00 0.28 0.28 55 1017.4
20260506125118 42 352 0.0 3.0 0.00 0.28 0.28 56 1017.3
20260506124618 42 287 0.0 1.0 0.00 0.28 0.28 58 1017.1
20260506124119 43 341 0.0 4.0 0.00 0.28 0.28 57 1017.0
20260506123627 44 320 2.0 3.0 0.00 0.28 0.28 54 1017.0
20260506123148 46 291 1.0 4.0 0.00 0.28 0.28 47 1016.9
20260506122635 47 58 1.0 4.0 0.00 0.28 0.28 40 1016.8
20260506122116 47 49 2.0 9.0 0.00 0.28 0.28 38 1016.5
20260506121645 47 46 3.0 9.0 0.00 0.28 0.28 42 1016.5
20260506121143 48 150 2.0 6.0 0.00 0.28 0.28 37 1016.5
20260506120630 48 129 2.0 15.0 0.00 0.28 0.28 36 1016.4
20260506120130 47 71 4.0 15.0 0.00 0.28 0.28 38 1016.2
20260506115638 47 148 3.0 10.0 0.00 0.28 0.28 40 1016.3
20260506115118 47 77 2.0 10.0 0.00 0.28 0.28 42 1016.3
20260506114619 47 142 2.0 10.0 0.00 0.28 0.28 41 1016.3
20260506114147 47 143 2.0 9.0 0.00 0.28 0.28 42 1016.3
20260506113614 47 56 4.0 10.0 0.00 0.28 0.28 41 1016.3
20260506113116 47 160 4.0 10.0 0.00 0.28 0.28 45 1016.3
20260506112617 46 97 1.0 7.0 0.00 0.28 0.28 46 1016.2
20260506112145 45 212 2.0 6.0 0.00 0.28 0.28 50 1016.2
20260506111652 45 216 1.0 5.0 0.00 0.28 0.28 52 1016.1
20260506111111 46 59 0.0 11.0 0.00 0.28 0.28 53 1016.1
20260506110617 46 199 3.0 17.0 0.00 0.28 0.28 52 1016.0
20260506110118 45 120 5.0 18.0 0.00 0.28 0.28 54 1015.8
20260506105626 44 125 9.0 21.0 0.00 0.28 0.28 56 1015.7
20260506105127 43 150 10.0 23.0 0.00 0.28 0.28 58 1015.6
20260506104627 43 229 12.0 23.0 0.00 0.28 0.28 58 1015.8
20260506104135 43 176 10.0 26.0 0.00 0.28 0.28 58 1015.9
20260506103616 43 132 10.0 27.0 0.00 0.28 0.28 59 1015.8
20260506103117 43 134 12.0 27.0 0.00 0.28 0.28 58 1015.6
20260506102624 43 224 13.0 25.0 0.00 0.28 0.28 59 1015.6
20260506102125 43 134 13.0 27.0 0.00 0.28 0.28 60 1015.5
20260506101612 42 180 13.0 31.0 0.00 0.28 0.28 60 1015.3
20260506101112 42 143 13.0 29.0 0.00 0.28 0.28 61 1015.3
20260506100615 42 137 9.0 29.0 0.00 0.28 0.28 64 1015.3
20260506100141 42 138 10.0 26.0 0.00 0.28 0.28 64 1015.4
20260506095628 42 112 15.0 31.0 0.00 0.28 0.28 62 1015.1
20260506095128 42 109 15.0 31.0 0.00 0.28 0.28 62 1015.0
20260506094629 42 189 11.0 26.0 0.00 0.28 0.28 64 1014.7
20260506094137 42 127 15.0 26.0 0.00 0.28 0.28 63 1014.5
20260506093617 42 139 11.0 31.0 0.01 0.28 0.28 66 1014.7
20260506093117 42 102 12.0 33.0 0.03 0.28 0.28 65 1014.6
20260506092645 42 123 15.0 33.0 0.10 0.28 0.28 63 1014.7
20260506092125 42 116 15.0 34.0 0.16 0.28 0.28 64 1014.4
20260506091633 42 188 14.0 34.0 0.19 0.28 0.28 65 1014.5
20260506091113 42 73 16.0 31.0 0.21 0.28 0.28 67 1014.3
20260506090621 41 150 17.0 32.0 0.22 0.28 0.28 70 1014.2
20260506090141 41 84 14.0 33.0 0.22 0.28 0.28 73 1014.4
20260506085627 41 105 18.0 33.0 0.22 0.28 0.28 72 1013.9
20260506085128 41 114 18.0 32.0 0.22 0.28 0.28 74 1014.0
20260506084636 40 68 17.0 28.0 0.22 0.28 0.28 76 1014.0
20260506084117 40 125 12.0 30.0 0.22 0.28 0.28 78 1014.2
20260506083618 40 132 17.0 30.0 0.21 0.27 0.27 79 1014.0
20260506083118 40 124 17.0 30.0 0.18 0.24 0.24 80 1014.4
20260506082626 40 65 12.0 30.0 0.12 0.18 0.18 81 1014.3
20260506082126 41 99 15.0 30.0 0.06 0.12 0.12 79 1013.7
20260506081631 42 77 13.0 31.0 0.03 0.09 0.09 77 1013.5
20260506081132 43 56 13.0 33.0 0.01 0.07 0.07 73 1013.4
20260506080617 45 69 14.0 30.0 0.00 0.06 0.06 69 1013.1
20260506080144 46 46 15.0 28.0 0.00 0.06 0.06 66 1012.6
20260506073119 49 72 0.0 1.0 0.04 0.06 0.06 83 1012.4
20260506072643 49 104 0.0 0.0 0.04 0.06 0.06 82 1012.5
20260506072123 49 104 0.0 2.0 0.05 0.06 0.06 80 1012.6
20260506071651 49 104 0.0 2.0 0.05 0.06 0.06 80 1012.6
20260506071111 49 88 1.0 3.0 0.06 0.06 0.06 80 1012.6
20260506070611 49 79 2.0 3.0 0.06 0.06 0.06 79 1012.6
20260506070118 49 60 0.0 4.0 0.05 0.05 0.05 80 1012.7
20260506062124 51 97 1.0 2.0 0.01 0.01 0.01 74 1012.4
20260506061653 52 290 0.0 1.0 0.00 0.00 0.00 71 1012.4
20260506061112 52 352 0.0 1.0 0.00 0.00 0.00 68 1012.3
20260506060613 51 92 0.0 1.0 0.00 0.00 0.00 65 1012.1
20260506060121 51 92 0.0 0.0 0.00 0.00 0.00 64 1012.0